KO4DYK Weather Reports


time (UTC)temp
F
wind
direction
speed
knots
gust
knots
rain 1hr
in
rain 24hr
in
rain mn
in
humidity
%
barometer
mb
20260504205317 79 256 2.6 8.7 0.00 0.00 0.00 45 1014.8
20260504204815 80 155 9.6 14.8 0.00 0.00 0.00 44 1014.9
20260504204313 79 186 0.9 13.0 0.00 0.00 0.00 46 1015.0
20260504203813 80 194 4.3 12.2 0.00 0.00 0.00 44 1015.0
20260504203309 80 179 6.1 7.0 0.00 0.00 0.00 46 1015.0
20260504202804 80 148 6.1 12.2 0.00 0.00 0.00 47 1015.0
20260504202304 80 225 2.6 11.3 0.00 0.00 0.00 45 1015.1
20260504201758 80 266 4.3 14.8 0.00 0.00 0.00 46 1015.3
20260504201256 80 174 7.8 13.0 0.00 0.00 0.00 44 1015.2
20260504200754 80 182 10.4 12.2 0.00 0.00 0.00 44 1015.5
20260504200249 80 176 5.2 7.8 0.00 0.00 0.00 46 1015.5
20260504195746 80 180 7.0 9.6 0.00 0.00 0.00 46 1015.5
20260504195242 79 244 5.2 7.0 0.00 0.00 0.00 46 1015.7
20260504194739 79 220 6.1 13.9 0.00 0.00 0.00 45 1015.8
20260504194235 80 245 7.0 9.6 0.00 0.00 0.00 44 1015.6
20260504193731 80 202 2.6 11.3 0.00 0.00 0.00 47 1016.0
20260504193229 79 211 7.8 14.8 0.00 0.00 0.00 44 1016.0
20260504192727 80 187 3.5 8.7 0.00 0.00 0.00 45 1016.0
20260504192225 80 161 4.3 9.6 0.00 0.00 0.00 44 1016.1
20260504191724 79 195 5.2 11.3 0.00 0.00 0.00 46 1016.1
20260504191220 79 222 6.1 13.0 0.00 0.00 0.00 46 1016.1
20260504190715 79 256 4.3 11.3 0.00 0.00 0.00 47 1016.3
20260504190212 80 157 5.2 13.0 0.00 0.00 0.00 46 1016.2
20260504185709 80 212 2.6 7.0 0.00 0.00 0.00 45 1016.3
20260504185205 80 236 3.5 7.0 0.00 0.00 0.00 49 1016.3
20260504184701 79 152 3.5 7.8 0.00 0.00 0.00 47 1016.4
20260504184156 79 258 2.6 12.2 0.00 0.00 0.00 47 1016.5
20260504183653 78 172 0.9 7.0 0.00 0.00 0.00 48 1016.5
20260504183151 79 142 2.6 12.2 0.00 0.00 0.00 47 1016.6
20260504182648 79 179 1.7 7.0 0.00 0.00 0.00 48 1016.6
20260504182146 79 167 5.2 9.6 0.00 0.00 0.00 47 1016.5
20260504181643 80 157 6.1 9.6 0.00 0.00 0.00 46 1016.7
20260504181141 79 232 5.2 7.0 0.00 0.00 0.00 47 1016.8
20260504180640 79 117 2.6 7.0 0.00 0.00 0.00 49 1016.7
20260504180138 79 157 5.2 7.0 0.00 0.00 0.00 48 1016.9
20260504175635 79 252 2.6 6.1 0.00 0.00 0.00 49 1016.9
20260504175131 77 235 7.0 18.2 0.00 0.00 0.00 50 1016.9
20260504174630 78 157 7.0 13.0 0.00 0.00 0.00 50 1016.8
20260504174126 78 222 5.2 8.7 0.00 0.00 0.00 49 1017.1
20260504173623 78 226 3.5 8.7 0.00 0.00 0.00 52 1017.4
20260504173121 77 159 0.9 11.3 0.00 0.00 0.00 50 1017.2
20260504172617 78 166 5.2 7.8 0.00 0.00 0.00 48 1017.5
20260504172114 79 179 4.3 14.8 0.00 0.00 0.00 48 1017.5
20260504171610 79 189 2.6 6.1 0.00 0.00 0.00 52 1017.4
20260504171107 78 161 0.9 5.2 0.00 0.00 0.00 49 1017.7
20260504170603 77 213 4.3 12.2 0.00 0.00 0.00 52 1017.6
20260504150946 73 207 0.9 4.3 0.00 0.00 0.00 62 1018.6
20260504150443 73 80 3.5 4.3 0.00 0.00 0.00 62 1018.6
20260504140910 68 184 0.9 7.0 0.00 0.00 0.00 67 1018.6
20260504140405 68 169 4.3 7.8 0.00 0.00 0.00 68 1018.8
20260504130330 64 181 3.5 5.2 0.00 0.00 0.00 74 1018.6
20260504120254 60 185 0.0 4.3 0.00 0.00 0.00 77 1018.4
20260504110218 60 184 3.5 5.2 0.00 0.00 0.00 75 1017.9
20260504100142 61 191 5.2 7.0 0.00 0.00 0.00 72 1018.2
20260504090104 61 204 1.7 4.3 0.00 0.00 0.00 72 1018.5
20260504081535 60 182 0.9 2.6 0.00 0.00 0.00 69 1018.5
20260504081030 60 153 2.6 5.2 0.00 0.00 0.00 69 1018.4
20260504080527 60 166 2.6 4.3 0.00 0.00 0.00 69 1018.4
20260504050341 58 177 0.0 1.7 0.00 0.00 0.00 69 1019.9
20260504045838 58 168 0.0 1.7 0.00 0.00 0.00 68 1019.7
20260504045338 58 177 0.9 1.7 0.00 0.00 0.00 68 1019.7
20260504044835 58 166 0.9 2.6 0.00 0.00 0.00 68 1019.7
20260504044332 58 185 0.9 1.7 0.00 0.00 0.00 68 1019.9
20260504043830 58 196 1.7 4.3 0.00 0.00 0.00 67 1019.8
20260504043326 58 211 1.7 1.7 0.00 0.00 0.00 67 1020.0
20260504042824 58 185 2.6 2.6 0.00 0.00 0.00 67 1019.9
20260504042320 58 181 1.7 5.2 0.00 0.00 0.00 66 1020.0
20260504041816 58 171 0.9 2.6 0.00 0.00 0.00 67 1020.0
20260504041313 58 177 0.9 4.3 0.00 0.00 0.00 66 1019.9
20260504040809 58 181 1.7 4.3 0.00 0.00 0.00 66 1020.0
20260504040307 59 197 1.7 1.7 0.00 0.00 0.00 66 1020.1
20260504035802 58 175 1.7 4.3 0.00 0.00 0.00 67 1020.1
20260504035300 59 184 1.7 2.6 0.00 0.00 0.00 66 1020.2
20260504034757 59 171 1.7 4.3 0.00 0.00 0.00 66 1020.2
20260504034254 59 166 1.7 4.3 0.00 0.00 0.00 66 1020.2
20260504033752 58 170 2.6 4.3 0.00 0.00 0.00 66 1020.4
20260504033249 58 177 2.6 4.3 0.00 0.00 0.00 67 1020.3
20260504032746 58 193 0.9 1.7 0.00 0.00 0.00 67 1020.5
20260504032243 58 198 1.7 1.7 0.00 0.00 0.00 68 1020.5
20260504031739 57 195 1.7 1.7 0.00 0.00 0.00 68 1020.6
20260504031237 58 185 0.9 0.9 0.00 0.00 0.00 68 1020.6
20260504030732 58 189 1.7 1.7 0.00 0.00 0.00 67 1020.6
20260504030230 58 177 1.7 1.7 0.00 0.00 0.00 68 1020.6
20260504025726 58 175 0.0 0.0 0.00 0.00 0.00 68 1020.6
20260504025223 58 175 0.0 0.0 0.00 0.00 0.00 67 1020.6
20260504024720 57 173 0.0 0.0 0.00 0.00 0.00 68 1020.5
20260504024217 57 183 0.0 0.0 0.00 0.00 0.00 70 1020.4
20260504023714 57 179 0.0 0.9 0.00 0.00 0.00 69 1020.5
20260504023209 57 184 1.7 1.7 0.00 0.00 0.00 70 1020.4
20260504022706 58 179 0.0 0.0 0.00 0.00 0.00 68 1020.4
20260504022202 58 178 0.9 2.6 0.00 0.00 0.00 66 1020.3
20260504021700 58 168 0.9 1.7 0.00 0.00 0.00 67 1020.3
20260504021156 58 179 0.9 1.7 0.00 0.00 0.00 67 1020.1
20260504020653 58 174 0.0 0.0 0.00 0.00 0.00 69 1019.9
20260504020149 57 175 0.0 0.0 0.00 0.00 0.00 68 1020.1
20260504015646 58 175 0.0 0.0 0.00 0.00 0.00 68 1020.0
20260504015143 58 176 0.0 0.0 0.00 0.00 0.00 68 1020.0
20260504014638 58 180 0.0 0.0 0.00 0.00 0.00 67 1019.9
20260504014136 58 182 0.0 0.0 0.00 0.00 0.00 67 1020.0
20260504013633 59 179 0.0 0.0 0.00 0.00 0.00 66 1019.8
20260504013130 59 178 0.0 0.0 0.00 0.00 0.00 65 1019.9
20260504012627 59 177 0.0 0.0 0.00 0.00 0.00 64 1019.8
20260504012125 59 177 0.0 0.0 0.00 0.00 0.00 62 1020.0
20260504011622 60 177 0.0 0.0 0.00 0.00 0.00 61 1020.0
20260504011118 60 176 0.0 0.0 0.00 0.00 0.00 61 1019.9
20260504010614 61 177 0.0 0.0 0.00 0.00 0.00 60 1020.0
20260504010110 62 176 0.0 0.0 0.00 0.00 0.00 58 1020.0
20260504005607 62 176 0.0 0.0 0.00 0.00 0.00 56 1019.9
20260504005104 63 176 0.0 0.0 0.00 0.00 0.00 54 1020.1
20260504004602 64 178 0.0 0.0 0.00 0.00 0.00 52 1020.1
20260504004059 65 180 0.0 0.0 0.00 0.00 0.00 51 1020.0
20260504003555 65 175 0.0 0.0 0.00 0.00 0.00 51 1020.0
20260504003052 66 177 0.0 0.0 0.00 0.00 0.00 50 1019.9
20260504002549 67 179 0.0 0.9 0.00 0.00 0.00 48 1019.8
20260504002046 67 177 0.0 0.9 0.00 0.00 0.00 48 1019.8
20260504001544 67 181 0.9 0.9 0.00 0.00 0.00 47 1019.8
20260504001040 68 221 0.9 2.6 0.00 0.00 0.00 46 1019.9
20260504000537 68 178 0.9 1.7 0.00 0.00 0.00 46 1020.0
20260504000035 69 176 1.7 2.6 0.00 0.00 0.00 45 1020.1
20260503235533 69 179 0.0 0.0 0.00 0.00 0.00 43 1020.1
20260503235029 69 180 0.9 5.2 0.00 0.00 0.00 43 1020.1
20260503234527 70 215 3.5 5.2 0.00 0.00 0.00 42 1020.1
20260503234025 70 179 0.9 2.6 0.00 0.00 0.00 41 1020.2
20260503233521 70 178 4.3 7.8 0.00 0.00 0.00 42 1020.3
20260503233017 70 184 0.9 2.6 0.00 0.00 0.00 42 1020.2
20260503232514 70 198 2.6 5.2 0.00 0.00 0.00 41 1020.3
20260503232012 70 175 0.9 1.7 0.00 0.00 0.00 42 1020.3
20260503231510 70 193 1.7 2.6 0.00 0.00 0.00 41 1020.5
20260503231006 70 352 2.6 8.7 0.00 0.00 0.00 42 1020.5
20260503230503 71 271 0.9 2.6 0.00 0.00 0.00 42 1020.2
20260503230000 71 173 1.7 2.6 0.00 0.00 0.00 42 1020.2
20260503225456 71 172 0.9 2.6 0.00 0.00 0.00 42 1020.3
20260503224952 71 174 2.6 6.1 0.00 0.00 0.00 41 1020.4
20260503224449 71 168 0.9 2.6 0.00 0.00 0.00 42 1020.5
20260503223947 71 163 1.7 1.7 0.00 0.00 0.00 41 1020.5
20260503223445 71 202 2.6 7.0 0.00 0.00 0.00 41 1020.7
20260503222940 72 157 4.3 7.0 0.00 0.00 0.00 38 1020.8
20260503222439 72 170 0.9 1.7 0.00 0.00 0.00 40 1020.9
20260503221937 72 170 1.7 6.1 0.00 0.00 0.00 39 1020.9
20260503221435 73 162 0.9 2.6 0.00 0.00 0.00 38 1020.9
20260503220931 74 186 0.9 1.7 0.00 0.00 0.00 37 1020.8
20260503220427 73 185 1.7 2.6 0.00 0.00 0.00 38 1021.0
20260503215925 72 223 3.5 4.3 0.00 0.00 0.00 39 1021.0
20260503215422 72 202 0.9 1.7 0.00 0.00 0.00 39 1021.2
20260503214919 72 169 5.2 7.0 0.00 0.00 0.00 39 1021.0
20260503214416 74 220 2.6 5.2 0.00 0.00 0.00 38 1021.1
20260503213914 75 161 1.7 2.6 0.00 0.00 0.00 35 1021.2
20260503213412 73 198 1.7 5.2 0.00 0.00 0.00 37 1021.4
20260503212908 76 177 0.9 1.7 0.00 0.00 0.00 38 1021.4
20260503212406 75 160 3.5 5.2 0.00 0.00 0.00 35 1021.5
20260503211903 75 198 1.7 1.7 0.00 0.00 0.00 37 1021.7
20260503211359 75 182 0.9 2.6 0.00 0.00 0.00 38 1021.8
20260503210854 75 169 2.6 4.3 0.00 0.00 0.00 37 1021.9
20260503210352 76 210 2.6 5.2 0.00 0.00 0.00 36 1022.0
20260503205847 74 182 0.0 1.7 0.00 0.00 0.00 38 1022.1